Regional Weather Roundup
Issued by NWS

Home | Current Version | Previous Version | Graphics & Text | Print | Product List | Glossary On
Versions: 1 2 3 4 5 6 7 8 9 10 11 12 13 14 15 16 17 18 19 20 21 22 23 24 25 26 27 28 29 30 31 32 33 34 35 36 37 38 39 40 41 42 43 44 45 46 47 48 49 50
000
ASUS43 KLMK 300810
RWRKY
KENTUCKY REGIONAL WEATHER ROUNDUP
NATIONAL WEATHER SERVICE LOUISVILLE KY
300 AM EST FRI JAN 30 2015

NOTE "FAIR" INDICATES FEW OR NO CLOUDS BELOW 12,000 FEET
WITH NO SIGNIFICANT WEATHER AND/OR OBSTRUCTIONS TO VISIBILITY.

KYZ001>023-026-027-061>063-070>075-300900-
WESTERN AND SOUTH CENTRAL KENTUCKY

CITY           SKY/WX    TMP DP  RH WIND       PRES   REMARKS
PADUCAH        CLOUDY    36  26  67 N14       30.41S WCI  27
HENDERSON      CLOUDY    36  25  64 NW17G26   30.40R WCI  25
OWENSBORO      CLOUDY    35  30  82 NW12      30.38R WCI  27
HOPKINSVILLE   CLOUDY    35  27  72 N13G18    30.38R WCI  27
BOWLING GREEN  CLOUDY    37  30  75 W8        30.36R WCI  31
GLASGOW        CLOUDY    35  31  85 NW7       30.33R WCI  29
$$

KYZ024-025-028>034-038-045-046-053-300900-
NORTH CENTRAL KENTUCKY

CITY           SKY/WX    TMP DP  RH WIND       PRES   REMARKS
LOUISVILLE/SDF DRIZZLE   36  29  75 NW9       30.30R WCI  29
LOUISVILLE/LOU CLOUDY    35  29  78 NW7       30.30R WCI  29
FORT KNOX      CLOUDY    35  28  78 W7        30.29R WCI  29
$$

KYZ035>037-039>044-047>052-055>060-089>105-300900-
NORTHEAST KENTUCKY

CITY           SKY/WX    TMP DP  RH WIND       PRES   REMARKS
LEXINGTON      CLOUDY    33  28  81 NW8       30.25R WCI  26
COVINGTON      CLOUDY    33  27  78 W10       30.23R WCI  25
FRANKFORT      CLOUDY    33  28  81 W8        30.25S WCI  26
$$

KYZ054-064>069-076>088-106>120-300900-
SOUTHEAST KENTUCKY

CITY           SKY/WX    TMP DP  RH WIND       PRES   REMARKS
JACKSON        CLOUDY    32  27  81 NW9       30.20S WCI  24
LONDON         CLOUDY    34  26  72 NW10      30.24R WCI  26
SOMERSET       CLOUDY    34  27  75 NW9       30.29R WCI  26
MIDDLESBORO    CLOUDY    35  28  76 N12G17    30.24R WCI  27
MONTICELLO     CLOUDY    35  30  82 NW10      30.31R WCI  27
$$




USA.gov is the U.S. government's official web portal to all federal, state and local government web resources and services.